Location: Hylvaty SDH
(49.9612°N, 16.4057°E)
Time: 20:10:56
(UTC+01:00)

Vanguard 1 Rocket - Pass Details

Date: 10 October 2020
Orbit: 656 x 4221 km, 34.3° (Epoch: 30 October)

Event Time Altitude Azimuth Distance (km) Brightness Sun altitude
Rises 20:54:56 0° 267° (W) 5,294 12.3 -26.5°
Reaches altitude 10° 20:58:27 10° 256° (WSW) 4,734 11.7 -27.0°
Maximum altitude 21:10:08 30° 202° (SSW) 4,516 10.8 -28.7°
Enters shadow 21:22:31 18° 162° (SSE) 6,253 11.2 -30.5°
Drops below altitude 10° 21:27:55 10° 153° (SSE) 7,181 - -31.2°
Sets 21:35:13 0° 144° (SE) 8,418 - -32.2°
